FW1313 Weather Reports


Display with metric or nautical units.
time (UTC)temp
F
wind
direction
speed
MPH
gust
MPH
rain 1hr
in
rain 24hr
in
rain mn
in
humidity
%
barometer
mb
20260901103408 56 111 0.0 1.0 0.00 0.00 0.00 37 1014.5
20260901100410 56 104 0.0 1.0 0.00 0.00 0.00 41 1014.9
20260901093407 56 104 0.0 0.0 0.00 0.00 0.00 46 1015.3
20260901090408 57 115 0.0 0.0 0.00 0.00 0.00 41 1015.6
20260901083407 57 116 0.0 0.0 0.00 0.00 0.00 37 1016.1
20260901080407 57 101 0.0 0.0 0.00 0.00 0.00 37 1016.7
20260901073407 57 104 0.0 0.0 0.00 0.00 0.00 33 1016.9
20260901070408 56 100 0.0 0.0 0.00 0.00 0.00 35 1017.1
20260901063408 56 136 0.0 0.0 0.00 0.00 0.00 41 1017.4
20260901060408 57 138 0.0 0.0 0.00 0.00 0.00 57 1017.6
20260901053407 57 91 0.0 0.0 0.00 0.00 0.00 57 1018.1
20260901050408 57 91 0.0 0.0 0.00 0.00 0.00 59 1018.3
20260901043407 58 98 0.0 0.0 0.00 0.00 0.00 58 1018.2
20260901040407 57 91 0.0 1.0 0.00 0.00 0.00 53 1018.1
20260901033407 57 96 0.0 0.0 0.00 0.00 0.00 60 1017.7
20260901030408 57 95 0.0 0.0 0.00 0.00 0.00 59 1017.3
20260901023408 58 108 0.0 0.0 0.00 0.00 0.00 57 1017.0
20260901020407 61 201 0.0 0.0 0.00 0.00 0.00 54 1016.9
20260901013407 63 169 0.0 0.0 0.00 0.00 0.00 53 1016.7
20260901010407 65 162 0.0 0.0 0.00 0.00 0.00 54 1016.6
20260901003408 68 242 0.0 1.0 0.00 0.00 0.00 51 1016.6
20260901000407 69 177 0.0 1.0 0.00 0.00 0.00 47 1016.4
20260831233407 71 211 0.0 1.0 0.00 0.00 0.00 45 1016.2
20260831230408 71 199 0.0 1.0 0.00 0.00 0.00 43 1016.0
20260831223408 72 184 0.0 1.0 0.00 0.00 0.00 41 1016.2
20260831220407 72 165 0.0 1.0 0.00 0.00 0.00 36 1016.4
20260831213408 73 212 0.0 1.0 0.00 0.00 0.00 35 1016.5
20260831210407 74 201 0.0 1.0 0.00 0.00 0.00 31 1016.3
20260831203407 75 174 0.0 1.0 0.00 0.00 0.00 30 1016.3
20260831200407 75 224 0.0 1.0 0.00 0.00 0.00 29 1015.9
20260831193408 75 203 0.0 0.0 0.00 0.00 0.00 28 1015.7
20260831190407 74 145 0.0 0.0 0.00 0.00 0.00 34 1015.4
20260831183408 74 132 0.0 0.0 0.00 0.00 0.00 43 1015.2
20260831180407 73 170 0.0 0.0 0.00 0.00 0.00 44 1014.8
20260831173408 71 160 0.0 0.0 0.00 0.00 0.00 48 1014.6
20260831170410 68 123 0.0 1.0 0.00 0.00 0.00 54 1014.4
20260831163407 66 124 0.0 0.0 0.00 0.00 0.00 52 1014.1
20260831160407 64 144 0.0 0.0 0.00 0.00 0.00 48 1014.2
20260831153408 63 108 0.0 0.0 0.00 0.00 0.00 43 1014.2
20260831150408 62 102 0.0 0.0 0.00 0.00 0.00 43 1014.1
20260831143407 61 89 0.0 0.0 0.00 0.00 0.00 33 1013.9
20260831140407 60 92 0.0 0.0 0.00 0.00 0.00 37 1013.5
20260831133407 60 105 0.0 0.0 0.00 0.00 0.00 36 1013.2
20260831130407 59 112 0.0 0.0 0.00 0.00 0.00 43 1013.2
20260831123407 59 91 0.0 0.0 0.00 0.00 0.00 48 1013.2
20260831120410 59 111 0.0 0.0 0.00 0.00 0.00 52 1013.4
20260831113411 59 103 0.0 0.0 0.00 0.00 0.00 53 1013.7
20260831110407 60 117 0.0 0.0 0.00 0.00 0.00 51 1014.1